Location: Boiry-Saint-Martin
(50.2009°N, 2.7612°E)
Time: 11:12:29
(UTC+00:00)

Daily predictions for brighter satellites

Satellite Brightness Start Highest point End
(mag) Time Altitude Azimuth Time Altitude Azimuth Time Altitude Azimuth
Okean 1 3.9 18:00:47 10° N 18:04:32 36° ENE 18:08:17 10° SE
Okean-O 2.8 18:01:32 10° SSE 18:05:51 54° ENE 18:10:12 10° N
Cosmos 1939 Rocket 4.1 18:02:25 10° S 18:06:08 45° W 18:09:52 10° NNW
USA 305 3.1 18:04:15 10° WSW 18:08:32 69° NNW 18:12:48 10° ENE
CZ-4 R/B 1.3 18:05:13 10° SSE 18:09:03 66° ENE 18:12:56 10° N
SL-16 R/B 2.6 18:04:39 10° S 18:09:57 42° ESE 18:15:17 10° NE
Cosmos 2263 Rocket 2.7 18:04:59 10° NW 18:10:30 64° WSW 18:16:00 10° SSE
CSL-04 DEB 4.3 18:07:18 10° NNE 18:11:16 75° ESE 18:15:15 10° S
ERBS 2.4 18:10:11 10° SW 18:13:27 58° SE 18:16:43 10° ENE
Cosmos 1515 3.9 18:12:08 10° N 18:15:51 47° ENE 18:19:32 10° SSE
ARGOS 3.3 18:11:23 10° SSE 18:16:41 58° ENE 18:22:01 10° N
Gbstr 26 Del rocket 3.2 18:13:21 10° WSW 18:17:40 85° SSE 18:22:59 10° ENE
USA 307 3.2 18:15:03 10° W 18:19:20 66° NNW 18:23:35 10° ENE
SKYMED 2 3.8 18:15:00 10° NNE 18:19:22 78° WNW 18:23:42 10° SSW
H-2A R/B 3.3 18:16:18 10° N 18:20:11 42° WNW 18:24:03 10° SW
Cosmos 2084 Rocket 3.5 18:16:41 10° NW 18:20:59 67° NE 18:25:25 10° SE
SL-4 R/B 1.7 18:18:25 10° W 18:22:01 67° N 18:25:01 13° E
ATLAS CENTAUR R/B 2.8 18:20:18 10° SE 18:22:15 14° ESE 18:23:28 12° E
USA 306 3.2 18:18:55 10° W 18:23:10 63° NNW 18:27:19 11° ENE
SJ-11-01 4.2 18:18:40 10° SSE 18:23:20 77° ENE 18:28:03 10° NNW
Cosmos 1805 Rocket 4.4 18:20:46 10° SSW 18:25:04 55° WNW 18:29:26 10° N
Cosmos 1470 Rocket 4.1 18:21:18 10° SSE 18:25:25 38° E 18:29:33 10° NNE
CZ-2C R/B 3.2 18:20:53 10° NNE 18:25:59 37° E 18:30:56 10° SSE
Meteor 1-20 Rocket 4.1 18:20:48 10° S 18:26:13 71° E 18:31:42 10° NNE
SL-08 RB Rocket 4.0 18:22:13 10° SE 18:26:32 47° ENE 18:30:55 10° N
Cosmos 1689 Rocket 2.4 18:24:39 10° NNE 18:27:24 39° E 18:30:08 10° S
USA 308 3.3 18:25:38 10° W 18:29:53 61° NNW 18:33:47 12° ENE
Okean O Rocket 4.4 18:26:38 10° SW 18:30:05 23° W 18:33:34 10° NW
PSLV R/B 3.9 18:28:38 10° NNE 18:32:44 63° ESE 18:36:45 10° S
Cosmos 1992 Rocket 4.3 18:28:59 10° S 18:33:54 43° ESE 18:38:51 10° NE
Cosmos 1486 Rocket 4.1 18:29:21 10° NNW 18:34:40 86° WSW 18:39:58 10° SSE
SAR-Lupe-4 3.7 18:31:36 10° NNE 18:35:05 48° E 18:38:34 10° S
Cosmos 968 Rocket 3.7 18:30:10 10° NNW 18:35:27 76° WSW 18:40:43 10° SSE
Cosmos 1703 Rocket 4.3 18:31:31 10° N 18:35:31 32° ENE 18:39:28 10° SE
H-2A R/B 2.5 18:34:57 10° S 18:40:22 71° WSW 18:45:51 10° NNW
Meteor 2-12 Rocket 4.5 18:36:15 10° S 18:42:08 56° E 18:48:05 10° NNE
USA 234 3.9 18:36:58 10° ENE 18:42:46 35° SE 18:48:38 10° SSW
FALCON 9 DEB 3.5 18:40:09 10° W 18:43:16 50° N 18:45:16 19° ENE
SeaSat 1 2.6 18:40:01 10° NE 18:44:49 49° ESE 18:49:35 10° S
Aureole 2 Rocket 1.4 18:42:41 10° NNW 18:45:16 73° ENE 18:47:11 15° SSE
Cosmos 2327 Rocket 4.5 18:39:37 10° S 18:45:55 72° E 18:52:10 10° NNE
Cosmos 1844 Rocket 2.7 18:40:30 10° NNW 18:46:04 62° ENE 18:51:34 10° SE
Cosmos 1933 Rocket 3.9 18:42:20 10° SSE 18:46:25 41° E 18:50:32 10° NNE
Cosmos 1271 Rocket 4.4 18:42:58 10° NNW 18:46:26 36° W 18:49:53 10° SSW
CSL-04 Rocket 3.7 18:41:56 10° SSE 18:47:29 81° ENE 18:53:01 10° NNW
CSL-04 Debris 4.2 18:42:09 10° SSE 18:47:35 86° ENE 18:53:06 10° NNW
OBJECT-B 2.1 18:47:22 21° ENE 18:47:39 22° ENE 18:50:12 10° NNE
Cosmos 1666 Rocket 4.0 18:43:37 10° SSW 18:47:55 66° WNW 18:52:14 10° N
Cosmos 1862 Rocket 3.8 18:43:24 10° NNW 18:47:55 77° W 18:52:23 10° S
ERS-2 2.0 18:45:01 10° NNE 18:48:42 76° ESE 18:52:20 10° S
Cosmos 2242 Rocket 3.8 18:44:23 10° N 18:48:47 48° ENE 18:53:06 10° SSE
Resurs 01 Rocket 3.3 18:49:22 16° ENE 18:49:47 16° ENE 18:52:25 10° NNE
Cosmos 1666 3.6 18:49:00 10° SE 18:52:03 25° E 18:55:08 10° NE
Cosmos 1302 Rocket 4.5 18:48:23 10° SW 18:53:31 63° WNW 18:58:43 10° NNE
Nadezhda 3 Rocket 4.1 18:47:25 10° N 18:53:49 87° W 19:00:12 10° S
SAR-Lupe-1 4.0 18:50:44 10° NNE 18:54:22 84° ESE 18:57:57 10° SSW
Cosmos 1844 3.8 18:48:51 10° NNW 18:54:37 61° NE 18:59:37 13° SE
FALCON 9 DEB 3.5 18:53:33 10° WNW 18:56:40 48° N 18:58:05 26° ENE
Cosmos 1602 4.1 18:54:58 10° SSW 18:58:50 66° WNW 19:02:45 10° N
Cosmos 2278 Rocket 3.5 18:55:49 10° NNW 19:00:21 23° NE 19:02:28 19° ENE
Cosmos 1354 Rocket 3.9 18:55:16 10° NNW 19:00:34 81° ENE 19:05:48 10° SSE
Cosmos 2360 Rocket 2.4 18:55:19 10° S 19:00:42 48° ESE 19:06:08 10° NE
Cosmos 2154 Rocket 4.0 18:55:12 10° S 19:01:25 90° SSE 19:07:40 10° N
Meteor 2-4 Rocket 3.7 18:58:03 10° N 19:03:54 78° ENE 19:09:49 10° SSE
YAOGAN 1 4.0 18:59:50 10° S 19:03:55 41° W 19:08:02 10° NNW
Cosmos 1295 Rocket 4.4 18:59:43 10° S 19:05:58 83° E 19:12:12 10° N
FALCON 9 DEB 3.2 19:03:23 10° WNW 19:06:49 72° SSW 19:08:06 35° SE
GP-B 3.0 19:03:08 10° S 19:07:32 73° E 19:12:00 10° N
Cosmos 2333 Rocket 3.1 19:03:01 10° SSE 19:07:36 26° ESE 19:08:25 25° E
Cosmos 1461 3.9 19:04:57 10° WSW 19:09:37 54° NW 19:14:17 10° NE
Cosmos 1500 3.0 19:06:48 10° S 19:10:31 81° E 19:14:16 10° NNE
Cosmos 1777 Rocket 4.2 19:06:06 10° NNW 19:11:13 50° ENE 19:13:54 26° ESE
Cosmos 1503 Rocket 4.2 19:06:11 10° NNW 19:11:23 74° WSW 19:16:32 10° SSE
Meteor 2-9 4.5 19:07:23 10° S 19:12:47 72° E 19:18:09 10° NNE
Abrixas rocket 1.9 19:11:00 10° WSW 19:13:15 50° SSW 19:13:15 50° SSW
Helios 1A Rocket 4.0 19:13:07 10° S 19:17:01 45° W 19:20:55 10° NNW
Cosmos 1980 Rocket 4.1 19:12:18 10° WSW 19:17:09 28° NW 19:22:03 10° NNE
Resurs 1-3 4.1 19:17:59 35° E 19:18:49 39° ENE 19:22:56 10° N
Ariane Rocket 3.0 19:19:27 22° SE 19:22:40 60° ENE 19:27:42 10° N
Cosmos 1943 Rocket 4.3 19:21:20 10° N 19:23:35 12° NNE 19:25:32 10° NE
SJ 16-02 2.5 19:20:58 10° N 19:24:29 26° NE 19:24:29 26° NE
FALCON 9 DEB 3.3 19:24:28 10° WNW 19:27:33 50° N 19:27:41 49° NNE
Okean 1-7 3.0 19:23:10 10° N 19:27:34 86° W 19:31:28 13° S
FALCON 9 DEB 3.4 19:24:56 10° WNW 19:28:04 49° N 19:28:14 48° NNE
Cosmos 2322 Rocket 2.5 19:24:22 10° SW 19:29:57 68° WNW 19:35:36 10° NNE
USA 186 2.7 19:31:18 32° NW 19:31:18 32° NW 19:32:52 10° NNW
SJ-6B 2.8 19:28:27 26° SSE 19:30:43 85° ENE 19:34:47 10° NNW
MOS 1 4.2 19:27:32 19° SSE 19:31:43 72° ENE 19:37:23 10° NNW
Meteor 1-14 Rocket 4.4 19:28:36 10° SSW 19:34:09 70° WNW 19:39:42 10° N
SL-8 Rocket 3.9 19:29:11 10° S 19:35:21 70° E 19:41:33 10° NNE
Meteor 1-23 Rocket 4.4 19:31:37 10° N 19:37:00 47° ENE 19:38:05 41° ESE
Meteor 1-11 Rocket 3.8 19:32:15 10° S 19:37:46 53° E 19:43:13 10° NNE
SME Rocket 4.2 19:29:24 10° NNE 19:38:12 67° ESE 19:43:47 10° S
Cosmos 1869 Rocket 3.4 19:39:35 50° SE 19:40:26 62° E 19:44:48 10° NNE
ATLAS 5 CENTAUR R/B 3.8 19:34:19 10° W 19:42:24 32° NW 19:44:42 17° NNE
Cosmos 2219 Rocket 3.2 19:43:15 10° S 19:56:15 - NNE 19:46:09 29° SSE
Meteor 1-13 Rocket 4.3 19:42:44 10° NNW 19:48:45 87° W 19:53:00 20° S
USA 305 3.4 19:44:42 10° WNW 19:48:53 50° N 19:49:23 47° NNE
Cosmos 2366 rocket 3.9 19:43:28 10° S 19:49:45 73° E 19:56:06 10° NNE
ERBS 3.6 19:46:42 10° W 19:49:46 34° NNW 19:49:50 34° NNW
IRS-1A Rocket 4.3 19:46:49 20° SSE 19:50:52 82° WSW 19:56:28 10° NNW
SL-16 R/B 3.5 19:48:46 10° WSW 19:54:06 41° NW 19:59:29 10° NNE
Cosmos 2341 Rocket 4.3 19:49:08 10° SSW 19:55:26 70° WNW 20:01:43 10° N
Cosmos 1066 Rocket 4.1 19:50:06 10° N 19:55:50 80° ENE 19:57:56 41° SSE
ARIANE 5 R/B 4.4 19:58:36 20° NNE 19:58:36 20° NNE 20:00:26 10° N
USA 307 3.4 19:55:33 10° WNW 19:59:44 51° N 19:59:47 51° N
ATLAS CENTAUR R/B 1.9 19:56:59 10° SW 19:59:42 46° WSW 19:59:42 46° WSW
SL-4 R/B 2.7 19:58:07 10° WNW 20:00:36 42° W 20:00:36 42° W
Cosmos 2221 Rocket 4.2 19:57:21 10° N 20:00:38 45° NNE 20:00:38 45° NNE
USA 306 3.4 19:59:22 10° WNW 20:03:25 51° N 20:03:25 51° N
Gbstr 26 Del rocket 3.5 20:00:02 10° W 20:04:48 75° N 20:05:32 64° ENE
Cosmos 2369 Rocket 4.3 20:02:24 10° N 20:04:57 13° NNE 20:05:39 13° NNE
Cosmos 2322 3.6 19:59:38 10° SSW 20:05:20 73° ESE 20:11:03 10° NNE
CZ-2C R/B 4.0 20:01:11 10° N 20:06:19 40° WNW 20:11:18 10° SW
Cosmos 1727 Rocket 3.8 20:02:25 10° N 20:08:39 85° E 20:10:40 46° SSE
USA 308 3.5 20:06:07 10° WNW 20:09:55 50° NNW 20:09:55 50° NNW
Okean 3 3.8 20:06:38 10° NNW 20:10:49 61° W 20:11:01 60° WSW
ASTEX 1 3.6 20:08:33 10° N 20:13:25 69° W 20:15:59 28° SSW
Cosmos 2218 Rocket 4.2 20:09:04 10° SSW 20:15:28 75° W 20:21:54 10° N
Meteor 2-20 4.3 20:12:49 10° N 20:18:58 90° E 20:20:13 60° S
OBJECT-B 3.1 20:20:27 24° WNW 20:20:27 24° WNW 20:22:36 10° NW
SeaSat 1 4.0 20:17:45 10° NNE 20:22:12 34° NW 20:26:37 10° WSW
BREEZE-M DEB (TANK) 3.3 20:20:06 10° W 20:22:09 50° WSW 20:22:09 50° WSW
Cosmos 1000 Rocket 4.4 20:17:19 10° N 20:23:31 68° ENE 20:23:31 68° ENE
Resurs 01 Rocket 2.4 20:26:56 48° NNW 20:26:56 48° NNW 20:30:09 10° NNW
USA 234 3.1 20:24:20 50° ENE 20:26:17 90° N 20:32:51 10° WSW
Cosmos 1898 Rocket 4.4 20:30:16 10° NNW 20:33:47 38° N 20:33:47 38° N
Terra 4.0 20:38:41 16° NNE 20:38:41 16° NNE 20:39:51 10° N
Cosmos 2333 4.5 20:30:22 10° SW 20:35:59 66° WNW 20:41:43 10° NNE
USA 281 4.2 20:38:27 32° NE 20:38:27 32° NE 20:43:42 10° NNW
Cosmos 2360 Rocket 3.6 20:39:39 10° WSW 20:44:52 37° NW 20:50:08 10° NNE
Cosmos 2278 Rocket 2.4 20:39:29 10° NNW 20:44:20 66° NNW 20:44:20 66° NNW
SPOT 3 Rocket 4.2 20:49:36 52° W 20:49:36 52° W 20:54:29 10° NNW
Cosmos 2333 Rocket 2.6 20:45:47 10° SW 20:56:43 12° NNE 20:57:10 10° NNE
NOSS 3-3 (A) 4.4 20:54:00 10° NW 21:01:26 80° SW 21:01:45 79° SSW
NOSS 3-3 (C) 4.4 20:54:06 10° NW 21:01:32 81° SW 21:01:50 79° SSW
SJ 16-02 3.4 20:59:17 10° NW 21:01:29 26° NW 21:01:29 26° NW
Cosmos 1943 Rocket 3.8 21:04:00 10° NNW 21:07:04 26° N 21:07:04 26° N
Cosmos 2369 Rocket 4.2 21:45:23 10° NNW 21:47:26 21° N 21:47:26 21° N
